Tracking 20621 objects as of 29-Mar-2020
HD Live streaming from Space Station
objects crossing your sky now

SL-8 R/B


10-day predictions


NORAD ID: 8874
Int'l Code: 1976-051B
Perigee: 971.4 km
Apogee: 1,006.5 km
Inclination: 83.0 °
Period: 104.7 minutes
Semi major axis: 7359 km
RCS: 5.0446 m2 (large)
Launch date: June 2, 1976
Source: Commonwealth of Independent States (former USSR) (CIS)
Launch site: PLESETSK MISSILE AND SPACE COMPLEX (PKMTR)

Note: This is a ROCKET BODY
aabbcc
Your satellite tracking list
Your tracking list is empty




NASA's NSSDC Master Catalog

Two Line Element Set (TLE):
1  8874U 76051B   20089.11807795 +.00000068 +00000-0 +55866-4 0  9991
2  8874 082.9609 333.1487 0023824 343.3678 016.6694 13.74966940197823
Source of the keplerian elements: AFSPC